STARLINK-3362, 51108

Orbit data source: Space-Track

STARLINK-3362, 51108 is a payload satellite owned by SpaceX/Seattle (US) in LEO that was launched on Wed, 19 Jan 2022 UTC via an FALCON 9 launch vehicle from the Air Force Eastern Test Range (AFETR). Payload-class satellites include a variety of spacecraft equipped with specific instruments for various scientific and technological missions. These include communications satellites like Starlink; space stations such as the ISS; scientific satellites like the Hubble; Earth observation satellites from companies like Planet Labs, Umbra, and HawkEye 360; GPS; miniature CubeSats for education and research; and military/defense satellites.

Loading next visibility...
Identifier
51108, 2022-005E
Orbit
LEO
Country
Flag of USUS
Related business
Manufacturer
SpaceX/Seattle
Mission
Operational Commercial Communications
Bus & Motor
STARLINK, Unknown motor
Mass
297 kg wet, ~275 kg dry
Launch date (UTC)
2022-01-19 (4 years ago)
Launch vehicle
FALCON 9
Launch site
Air Force Eastern Test Range (AFETR)
Object type
Payload
Rocket body
Debris
Shape & HBR
Box + 1 Pan, 10.1 m
Radar Cross Section
13.562 m², Large (>1 m²)

Expand to show TLE details & history
Last TLE update: 10 hours ago

TLE from 10 hours ago
0 STARLINK-3362
1 51108U 22005E   26094.21252128 -.00001094  00000-0 -50659-4 0  9993
2 51108  53.2182 174.5433 0001450  79.1511 280.9645 15.08833353232739
Epoch: 2026-04-04T05:06Z
TLE epoch observation values (Epoch: 2026-04-04T05:06:01.838Z)
Latitude
0.00003°
Longitude
-94.49987°
Altitude
540.471 km
Speed
7.593 km/s
True Right ascension
11h 38m 10s
True Declination
0° 00' 00"
Sunlit
Object was in full shadow at epoch
Visualization orbit readout
Latitude
Unknown
Longitude
Unknown
Altitude
Unknown
Speed
Unknown
Apparent Right ascension
Unknown
Apparent Declination
Unknown
Sunlit
N/A
Visualization observer readout
Local Sidereal Time
20:30:20
Azimuth
Unknown
Elevation
Unknown
Doppler factor
Unknown
Orbital elements
Apogee altitude
541.012 km
Perigee altitude
539.005 km
Semi-major axis
6,918.146 km
Eccentricity
0.00015
Inclination
53.2182°
RAAN
174.5433°
Arg. of periapsis
79.1511°
True anomaly
280.94819°
Mean anomaly
280.9645°
Eccentric anomaly
280.95634°
Mean motion
3.77189 °/min
Orbital period
95.44 mins
BSTAR
-0.000050659
Loading maneuver chart data...
Computing Atmospheric mass density...
Loading historical data...
Loading historical data...
Loading historical data...
Loading historical data...
Loading historical data...
Loading historical data...
Loading historical data...

Documentation

Showing up to 5 results
|